Date String (YYYY-MM-DD hh:mm:ss) UTC,Instrument flags,Ambient pressure (hPa),Sample flow (lpm),Bypass flow (lpm),Sample temperature (°C),Ambient temperature (°C),ASC tube jacket temperature (°C),LED temperature (°C),Box temperature (°C),Sample RH (%),Span deviation,Mass concentration (μg/m³),Mass concentration (μg/m³),Mass concentration (μg/m³)
DateTimeUTC,F1_M11,P_M11,Q1_M11,Q2_M11,T1_M11,T2_M11,T3_M11,T4_M11,T5_M11,U1_M11,ZSPAN_M11,X0_M11,X2_M11,X1_M11
2022-07-06 18:00:00,,0828.9,5.01,0.00,31.3,27.6,00.0,39.7,32.1,34.0,0000.0,0013.33,0005.34,0004.50
2022-07-06 18:01:00,,0828.8,5.00,0.00,31.2,27.7,00.0,39.7,32.1,34.2,0000.0,0013.44,0005.34,0004.51
2022-07-06 18:02:00,,0828.8,5.00,0.00,31.2,27.9,00.0,39.7,32.1,34.4,0000.0,0013.56,0005.30,0004.53
2022-07-06 18:03:00,,0829.1,4.99,0.00,31.1,28.1,00.0,39.7,32.1,34.6,0000.0,0013.51,0005.30,0004.54
2022-07-06 18:04:00,,0829.1,4.99,0.00,31.1,28.3,00.0,39.6,32.1,34.6,0000.0,0013.12,0005.31,0004.54
2022-07-06 18:05:00,,0829.2,5.01,0.00,31.0,28.4,00.0,39.6,32.2,34.4,0000.0,0012.31,0005.33,0004.54
2022-07-06 18:06:00,,0828.9,5.00,0.00,31.0,28.6,00.0,39.6,32.2,34.7,0000.0,0012.37,0005.35,0004.55
2022-07-06 18:07:00,,0829.2,5.00,0.00,31.0,28.7,00.0,39.6,32.3,35.0,0000.0,0012.17,0005.33,0004.53
2022-07-06 18:08:00,,0828.8,5.00,0.00,31.1,28.8,00.0,39.6,32.4,34.3,0000.0,0011.05,0005.26,0004.49
2022-07-06 18:09:00,,0828.8,5.01,0.00,31.2,28.4,00.0,39.5,32.4,32.7,0000.0,0010.79,0005.23,0004.44
2022-07-06 18:10:00,,0829.0,5.00,0.00,31.2,27.8,00.0,39.5,32.3,32.5,0000.0,0010.34,0005.20,0004.39
2022-07-06 18:11:00,,0829.1,5.01,0.00,31.2,27.5,00.0,39.5,32.2,32.5,0000.0,0010.37,0005.11,0004.33
2022-07-06 18:12:00,,0828.8,5.00,0.00,31.1,27.5,00.0,39.5,32.0,32.7,0000.0,0010.40,0005.03,0004.27
2022-07-06 18:13:00,,0828.8,5.00,0.00,31.0,27.6,00.0,39.4,32.0,32.6,0000.0,0009.90,0004.98,0004.19
2022-07-06 18:14:00,,0828.8,4.99,0.00,30.9,27.8,00.0,39.4,32.0,32.9,0000.0,0009.94,0004.93,0004.12
2022-07-06 18:15:00,,0828.7,4.99,0.00,30.9,28.0,00.0,39.4,32.0,33.0,0000.0,0009.93,0004.93,0004.10
2022-07-06 18:16:00,,0829.2,4.99,0.00,30.9,28.2,00.0,39.4,32.0,33.7,0000.0,0009.99,0004.92,0004.07
2022-07-06 18:17:00,,0829.1,5.00,0.00,30.8,28.3,00.0,39.4,32.1,34.0,0000.0,0010.11,0004.90,0004.04
2022-07-06 18:18:00,,0829.3,5.02,0.00,30.8,28.5,00.0,39.4,32.1,35.0,0000.0,0010.12,0004.86,0004.03
2022-07-06 18:19:00,,0829.1,4.99,0.00,30.9,28.6,00.0,39.4,32.2,34.1,0000.0,0010.17,0004.85,0004.01
2022-07-06 18:20:00,,0829.1,4.99,0.00,30.9,28.7,00.0,39.4,32.2,33.5,0000.0,0009.95,0004.82,0004.01
2022-07-06 18:21:00,,0829.2,4.99,0.00,30.9,28.2,00.0,39.3,32.2,33.7,0000.0,0010.12,0004.85,0004.01
2022-07-06 18:22:00,,0829.3,5.01,0.00,30.9,27.6,00.0,39.3,32.1,33.8,0000.0,0010.51,0004.89,0004.01
2022-07-06 18:23:00,,0829.3,4.99,0.00,30.9,27.5,00.0,39.3,32.0,33.8,0000.0,0010.41,0004.92,0004.02
2022-07-06 18:24:00,,0829.3,5.00,0.00,30.7,27.5,00.0,39.2,31.9,33.6,0000.0,0010.74,0004.96,0004.05
2022-07-06 18:25:00,,0829.2,5.00,0.00,30.7,27.6,00.0,39.2,31.8,34.3,0000.0,0010.70,0004.98,0004.07
2022-07-06 18:26:00,,0828.9,5.00,0.00,30.6,27.8,00.0,39.2,31.9,34.4,0000.0,0010.82,0004.96,0004.06
2022-07-06 18:27:00,,0828.7,5.00,0.00,30.6,28.0,00.0,39.2,31.9,34.8,0000.0,0010.85,0004.96,0004.07
2022-07-06 18:28:00,,0828.7,4.99,0.00,30.6,28.1,00.0,39.2,31.9,34.7,0000.0,0011.12,0004.95,0004.08
2022-07-06 18:29:00,,0828.7,5.00,0.00,30.6,28.3,00.0,39.2,32.0,34.7,0000.0,0011.10,0004.99,0004.09
2022-07-06 18:30:00,,0828.7,5.01,0.00,30.6,28.5,00.0,39.2,32.0,34.5,0000.0,0011.57,0005.05,0004.12
2022-07-06 18:31:00,,0828.8,5.00,0.00,30.6,28.6,00.0,39.2,32.0,34.7,0000.0,0011.85,0005.13,0004.16
2022-07-06 18:32:00,,0828.9,4.99,0.00,30.6,28.7,00.0,39.2,32.1,34.9,0000.0,0011.64,0005.10,0004.18
2022-07-06 18:33:00,,0828.8,4.99,0.00,30.7,28.7,00.0,39.2,32.2,34.4,0000.0,0011.07,0005.12,0004.20
2022-07-06 18:34:00,,0828.9,5.00,0.00,30.8,28.1,00.0,39.1,32.1,34.4,0000.0,0011.61,0005.12,0004.21
2022-07-06 18:35:00,,0828.9,5.01,0.00,30.8,27.6,00.0,39.1,32.0,34.3,0000.0,0011.48,0005.12,0004.20
2022-07-06 18:36:00,,0828.6,4.99,0.00,30.7,27.5,00.0,39.1,31.9,34.0,0000.0,0012.06,0005.14,0004.20
2022-07-06 18:37:00,,0828.7,4.99,0.00,30.6,27.6,00.0,39.1,31.8,34.0,0000.0,0012.36,0005.12,0004.20
2022-07-06 18:38:00,,0828.8,5.01,0.00,30.6,27.7,00.0,39.1,31.8,34.1,0000.0,0012.22,0005.09,0004.20
2022-07-06 18:39:00,,0828.9,5.00,0.00,30.5,27.9,00.0,39.1,31.8,34.2,0000.0,0011.68,0005.09,0004.21
2022-07-06 18:40:00,,0829.0,5.00,0.00,30.5,28.1,00.0,39.1,31.9,34.3,0000.0,0011.65,0005.06,0004.21
2022-07-06 18:41:00,,0829.1,5.00,0.00,30.5,28.2,00.0,39.1,31.9,34.5,0000.0,0011.54,0004.98,0004.19
2022-07-06 18:42:00,,0829.0,5.00,0.00,30.5,28.4,00.0,39.1,32.0,34.2,0000.0,0011.37,0004.90,0004.16
2022-07-06 18:43:00,,0829.1,5.00,0.00,30.5,28.5,00.0,39.1,32.0,34.3,0000.0,0011.88,0004.88,0004.14
2022-07-06 18:44:00,,0828.9,4.99,0.00,30.5,28.7,00.0,39.1,32.0,34.3,0000.0,0012.31,0004.85,0004.13
2022-07-06 18:45:00,,0829.0,5.01,0.00,30.5,28.5,00.0,39.1,32.0,34.4,0000.0,0012.71,0004.83,0004.13
2022-07-06 18:46:00,,0829.0,5.00,0.00,30.5,27.9,00.0,39.0,32.0,34.3,0000.0,0012.51,0004.79,0004.14
2022-07-06 18:47:00,,0829.0,5.02,0.00,30.5,27.5,00.0,39.0,31.9,34.1,0000.0,0011.94,0004.77,0004.15
2022-07-06 18:48:00,,0828.5,5.00,0.00,30.4,27.5,00.0,39.0,31.8,34.2,0000.0,0011.45,0004.81,0004.17
2022-07-06 18:49:00,,0828.4,5.00,0.00,30.3,27.6,00.0,39.0,31.7,34.5,0000.0,0011.47,0004.81,0004.17
2022-07-06 18:50:00,,0828.5,5.00,0.00,30.3,27.7,00.0,38.9,31.7,34.7,0000.0,0011.71,0004.83,0004.17
2022-07-06 18:51:00,,0828.4,4.98,0.00,30.2,27.9,00.0,38.9,31.7,34.9,0000.0,0012.19,0004.92,0004.17
2022-07-06 18:52:00,,0828.4,5.00,0.00,30.3,28.1,00.0,38.9,31.8,35.2,0000.0,0013.06,0005.03,0004.17
2022-07-06 18:53:00,,0828.5,4.99,0.00,30.5,28.2,00.0,38.9,32.0,34.5,0000.0,0013.31,0005.04,0004.17
2022-07-06 18:54:00,,0828.5,5.00,0.00,30.6,28.4,00.0,38.9,32.0,33.9,0000.0,0013.17,0005.07,0004.18
2022-07-06 18:55:00,,0828.4,4.99,0.00,30.6,28.5,00.0,38.9,32.0,34.0,0000.0,0012.58,0005.09,0004.17
2022-07-06 18:56:00,,0828.4,5.00,0.00,30.7,28.6,00.0,39.0,32.1,33.9,0000.0,0011.59,0005.10,0004.17
2022-07-06 18:57:00,,0828.4,5.00,0.00,30.7,28.3,00.0,39.0,32.1,34.0,0000.0,0011.57,0005.13,0004.16
2022-07-06 18:58:00,,0828.4,5.00,0.00,30.7,27.7,00.0,38.9,32.0,33.9,0000.0,0011.60,0005.12,0004.14
2022-07-06 18:59:00,,0828.4,5.01,0.00,30.7,27.4,00.0,38.9,31.9,33.7,0000.0,0011.60,0005.09,0004.13
